CW1100 Weather Reports


Display with metric or nautical units.
time (UTC)temp
F
wind
direction
speed
MPH
gust
MPH
rain 1hr
in
rain 24hr
in
rain mn
in
humidity
%
barometer
mb
20260504001005 60 0 16.0 36.0 0.00 0.00 0.00 35 1007.7
20260504000505 60 351 18.0 41.0 0.00 0.00 0.00 34 1007.8
20260504000006 60 18 21.0 41.0 0.00 0.00 0.00 34 1007.7
20260503235505 61 5 20.0 29.0 0.00 0.00 0.00 38 1007.5
20260503235006 61 358 19.0 30.0 0.00 0.00 0.00 39 1007.5
20260503234505 61 344 21.0 30.0 0.00 0.00 0.00 39 1007.4
20260503234005 61 358 19.0 26.0 0.00 0.00 0.00 39 1007.4
20260503233005 62 11 16.0 32.0 0.00 0.00 0.00 38 1007.4
20260503232505 63 24 18.0 39.0 0.00 0.00 0.00 37 1007.5
20260503232005 63 0 17.0 39.0 0.00 0.00 0.00 35 1007.3
20260503231005 64 350 23.0 40.0 0.00 0.00 0.00 33 1007.2
20260503230505 64 354 26.0 40.0 0.00 0.00 0.00 33 1007.0
20260503230006 64 357 21.0 38.0 0.00 0.00 0.00 33 1007.0
20260503224504 63 350 19.0 35.0 0.00 0.00 0.00 37 1007.1
20260503224005 64 0 24.0 36.0 0.00 0.00 0.00 37 1006.9
20260503223505 65 8 20.0 36.0 0.00 0.00 0.00 35 1006.7
20260503223005 69 353 22.0 33.0 0.00 0.00 0.00 30 1006.7
20260503222505 70 306 13.0 30.0 0.00 0.00 0.00 29 1006.1
20260503222005 70 310 14.0 30.0 0.00 0.00 0.00 29 1006.0
20260503221005 71 308 15.0 30.0 0.00 0.00 0.00 28 1006.1
20260503220505 71 316 16.0 30.0 0.00 0.00 0.00 28 1006.1
20260503215505 70 311 10.0 28.0 0.00 0.00 0.00 29 1006.2
20260503214505 70 321 14.0 24.0 0.00 0.00 0.00 27 1006.3
20260503214006 71 326 13.0 24.0 0.00 0.00 0.00 28 1006.4
20260503212005 71 304 16.0 28.0 0.00 0.00 0.00 26 1006.7
20260503211505 71 323 10.0 23.0 0.00 0.00 0.00 28 1006.8
20260503211005 71 293 11.0 26.0 0.00 0.00 0.00 29 1006.9
20260503210505 70 322 14.0 26.0 0.00 0.00 0.00 29 1007.0
20260503210006 70 309 13.0 26.0 0.00 0.00 0.00 29 1007.1
20260503205505 70 309 14.0 22.0 0.00 0.00 0.00 30 1007.1
20260503205005 69 293 9.0 23.0 0.00 0.00 0.00 30 1007.2
20260503204506 70 298 14.0 23.0 0.00 0.00 0.00 30 1007.3
20260503204006 70 317 9.0 20.0 0.00 0.00 0.00 31 1007.4
20260503203506 70 336 9.0 20.0 0.00 0.00 0.00 31 1007.4
20260503202505 70 351 9.0 21.0 0.00 0.00 0.00 31 1007.5
20260503202005 70 343 13.0 24.0 0.00 0.00 0.00 31 1007.5
20260503201506 69 352 12.0 24.0 0.00 0.00 0.00 32 1007.6
20260503201005 69 345 13.0 24.0 0.00 0.00 0.00 31 1007.7
20260503200506 70 347 9.0 26.0 0.00 0.00 0.00 32 1007.7
20260503200006 70 321 11.0 26.0 0.00 0.00 0.00 30 1007.8
20260503195006 70 326 14.0 23.0 0.00 0.00 0.00 30 1008.0
20260503194505 70 342 10.0 23.0 0.00 0.00 0.00 30 1008.1
20260503194005 70 314 13.0 26.0 0.00 0.00 0.00 31 1008.2
20260503193005 71 329 18.0 29.0 0.00 0.00 0.00 30 1008.2
20260503192005 71 311 9.0 20.0 0.00 0.00 0.00 31 1008.4
20260503191505 71 322 13.0 22.0 0.00 0.00 0.00 29 1008.5
20260503191006 71 334 10.0 23.0 0.00 0.00 0.00 30 1008.6
20260503190505 71 335 11.0 23.0 0.00 0.00 0.00 30 1008.8
20260503190005 71 343 9.0 20.0 0.00 0.00 0.00 30 1009.0
20260503185505 71 296 12.0 22.0 0.00 0.00 0.00 30 1009.0
20260503185006 71 306 11.0 22.0 0.00 0.00 0.00 31 1009.1
20260503184505 70 292 10.0 22.0 0.00 0.00 0.00 30 1009.2
20260503184005 70 281 12.0 22.0 0.00 0.00 0.00 29 1009.1
20260503183505 70 276 10.0 22.0 0.00 0.00 0.00 30 1009.2
20260503183005 71 282 13.0 24.0 0.00 0.00 0.00 30 1009.4
20260503182505 70 282 11.0 26.0 0.00 0.00 0.00 33 1009.5
20260503182006 70 297 13.0 26.0 0.00 0.00 0.00 32 1009.6
20260503181506 70 315 16.0 26.0 0.00 0.00 0.00 32 1009.7
20260503181005 71 309 14.0 26.0 0.00 0.00 0.00 34 1009.6
20260503180505 70 290 17.0 36.0 0.00 0.00 0.00 35 1009.7
20260503180006 70 275 14.0 36.0 0.00 0.00 0.00 35 1009.8
20260503175505 71 294 16.0 36.0 0.00 0.00 0.00 36 1009.9
20260503174505 71 286 16.0 33.0 0.00 0.00 0.00 37 1010.0
20260503174006 71 301 17.0 33.0 0.00 0.00 0.00 36 1010.1
20260503173004 71 274 12.0 30.0 0.00 0.00 0.00 38 1010.3
20260503172505 71 273 16.0 30.0 0.00 0.00 0.00 36 1010.4
20260503172006 71 286 13.0 26.0 0.00 0.00 0.00 36 1010.4
20260503171505 70 272 13.0 26.0 0.00 0.00 0.00 37 1010.5
20260503171006 71 275 16.0 26.0 0.00 0.00 0.00 36 1010.5
20260503170505 71 263 17.0 26.0 0.00 0.00 0.00 35 1010.5
20260503151006 63 249 16.0 30.0 0.00 0.00 0.00 39 1012.9
20260503150505 63 261 14.0 24.0 0.00 0.00 0.00 39 1013.0
20260503131005 45 245 5.0 10.0 0.00 0.00 0.00 67 1015.3
20260503130505 44 238 6.0 10.0 0.00 0.00 0.00 68 1015.4
20260503110505 41 246 6.0 12.0 0.00 0.00 0.00 71 1016.2
20260503090505 41 245 3.0 9.0 0.00 0.00 0.00 68 1017.7
20260503081004 44 244 5.0 8.0 0.00 0.00 0.00 65 1018.2
20260503071505 44 247 4.0 7.0 0.00 0.00 0.00 63 1018.7
20260503070504 44 247 3.0 7.0 0.00 0.00 0.00 62 1018.7
20260503055004 46 231 3.0 5.0 0.00 0.00 0.00 55 1019.2
20260503054504 46 228 2.0 6.0 0.00 0.00 0.00 56 1019.1
20260503054004 46 217 3.0 6.0 0.00 0.00 0.00 56 1019.1
20260503053504 46 218 3.0 6.0 0.00 0.00 0.00 56 1019.1
20260503053004 47 216 3.0 6.0 0.00 0.00 0.00 55 1019.1
20260503052005 47 216 3.0 7.0 0.00 0.00 0.00 55 1019.2
20260503050504 48 225 3.0 5.0 0.00 0.00 0.00 55 1019.3
20260503050005 48 232 3.0 5.0 0.00 0.00 0.00 55 1019.2
20260503045004 48 229 2.0 5.0 0.00 0.00 0.00 55 1019.2
20260503044504 49 213 3.0 6.0 0.00 0.00 0.00 55 1019.3
20260503044005 49 224 3.0 7.0 0.00 0.00 0.00 54 1019.3
20260503043504 49 229 5.0 7.0 0.00 0.00 0.00 55 1019.3
20260503042504 50 223 2.0 5.0 0.00 0.00 0.00 54 1019.3
20260503042005 50 216 2.0 5.0 0.00 0.00 0.00 53 1019.3
20260503041505 50 219 3.0 5.0 0.00 0.00 0.00 53 1019.4
20260503041008 50 212 2.0 3.0 0.00 0.00 0.00 54 1019.4
20260503040507 50 220 2.0 3.0 0.00 0.00 0.00 53 1019.4
20260503040008 50 221 2.0 3.0 0.00 0.00 0.00 53 1019.5
20260503035508 50 221 2.0 3.0 0.00 0.00 0.00 53 1019.5
20260503035009 50 218 2.0 3.0 0.00 0.00 0.00 53 1019.6
20260503034507 50 223 2.0 3.0 0.00 0.00 0.00 52 1019.7
20260503034008 51 222 2.0 3.0 0.00 0.00 0.00 51 1019.7
20260503033508 51 226 2.0 3.0 0.00 0.00 0.00 51 1019.8
20260503033008 51 280 1.0 3.0 0.00 0.00 0.00 51 1019.8
20260503032507 51 285 1.0 2.0 0.00 0.00 0.00 51 1019.8
20260503032007 51 285 0.0 2.0 0.00 0.00 0.00 50 1019.8
20260503031508 51 285 0.0 2.0 0.00 0.00 0.00 51 1019.8
20260503031007 52 285 1.0 3.0 0.00 0.00 0.00 49 1019.8
20260503030508 52 285 1.0 3.0 0.00 0.00 0.00 49 1019.8
20260503030008 53 285 1.0 2.0 0.00 0.00 0.00 48 1019.8
20260503025508 53 285 1.0 2.0 0.00 0.00 0.00 47 1019.8
20260503025008 53 285 0.0 0.0 0.00 0.00 0.00 47 1019.8
20260503024507 54 285 0.0 1.0 0.00 0.00 0.00 45 1019.8
20260503024007 54 285 0.0 1.0 0.00 0.00 0.00 45 1019.9
20260503023008 56 285 0.0 2.0 0.00 0.00 0.00 43 1019.9
20260503022507 57 285 1.0 2.0 0.00 0.00 0.00 41 1019.9
20260503022007 59 285 0.0 2.0 0.00 0.00 0.00 39 1019.9
20260503021507 58 285 1.0 3.0 0.00 0.00 0.00 39 1019.9
20260503021007 58 285 1.0 3.0 0.00 0.00 0.00 39 1019.9
20260503020507 59 285 1.0 2.0 0.00 0.00 0.00 39 1019.9
20260503015007 60 289 1.0 3.0 0.00 0.00 0.00 37 1020.0
20260503014507 61 274 2.0 3.0 0.00 0.00 0.00 37 1020.0
20260503013507 61 288 1.0 9.0 0.00 0.00 0.00 35 1020.0
20260503013007 62 288 3.0 9.0 0.00 0.00 0.00 35 1020.0
20260503012508 62 294 3.0 12.0 0.00 0.00 0.00 35 1020.1
20260503011508 62 329 9.0 13.0 0.00 0.00 0.00 35 1020.1
20260503010507 62 352 5.0 13.0 0.00 0.00 0.00 35 1020.3
20260503010007 62 329 8.0 13.0 0.00 0.00 0.00 35 1020.3
20260503005508 62 309 6.0 13.0 0.00 0.00 0.00 36 1020.4
20260503005008 63 312 4.0 12.0 0.00 0.00 0.00 34 1020.3
20260503004508 63 307 4.0 20.0 0.00 0.00 0.00 34 1020.4
20260503004011 62 295 10.0 20.0 0.00 0.00 0.00 35 1020.4
20260503003007 63 329 7.0 17.0 0.00 0.00 0.00 35 1020.5
20260503002507 63 294 6.0 18.0 0.00 0.00 0.00 35 1020.6
20260503002007 63 0 11.0 18.0 0.00 0.00 0.00 36 1020.6
20260503001507 63 346 6.0 16.0 0.00 0.00 0.00 36 1020.6